Location: Brabourne
(51.1333°N, 1.0000°E)
Time: 11:56:42
(UTC+00:00)

IRS-1D - Pass Details

Date: 28 October 2021
Orbit: 739 x 817 km, 98.6° (Epoch: 30 November)

Event Time Altitude Azimuth Distance (km) Brightness Sun altitude
Rises 03:18:38 0° 11° (N) 3,259 7.1 -32.0°
Reaches altitude 10° 03:21:03 10° 5° (N) 2,316 6.2 -31.7°
Enters shadow 03:22:33 19° 358° (N) 1,760 5.5 -31.5°
